• In Hungary
  • List of Countries
  • For 7 days
  • Water Temperature
  • Satellite Maps
  • Weather Map
  • News
  • Weather Widgets
  • user-avatar
    Login

    Hourly Weather Tadzhura

    Today, 20 September, Thursday

    Time Temperature Precipitation Wind Pressure Humidity
    00:00 +35°C° 0 mm 1 mps 752 mmHg 59%
    01:00 +35°C° 0 mm 1 mps 752 mmHg 59%
    02:00 +35°C° 0 mm 1 mps 752 mmHg 59%
    03:00 +35°C° 0 mm 1 mps 752 mmHg 59%
    04:00 +34°C° 0 mm 1 mps 752 mmHg 59%
    05:00 +34°C° 0 mm 1 mps 753 mmHg 59%
    06:00 +34°C° 0 mm 1 mps 753 mmHg 59%
    07:00 +35°C° 0 mm 1 mps 753 mmHg 55%
    08:00 +36°C° 0 mm 2 mps 753 mmHg 52%
    09:00 +37°C° 0 mm 2 mps 754 mmHg 49%
    10:00 +38°C° 0 mm 2 mps 753 mmHg 45%
    11:00 +39°C° 0 mm 2 mps 753 mmHg 41%
    12:00 +40°C° 0 mm 2 mps 753 mmHg 38%
    13:00 +41°C° 0 mm 2 mps 752 mmHg 36%
    14:00 +42°C° 0 mm 3 mps 752 mmHg 35%
    15:00 +43°C° 0 mm 3 mps 751 mmHg 34%
    16:00 +42°C° 0 mm 3 mps 751 mmHg 36%
    17:00 +40°C° 0 mm 3 mps 751 mmHg 38%
    18:00 +40°C° 0 mm 2 mps 751 mmHg 40%
    19:00 +39°C° 0 mm 2 mps 751 mmHg 44%
    20:00 +38°C° 0 mm 2 mps 751 mmHg 47%
    21:00 +37°C° 0 mm 3 mps 752 mmHg 50%
    22:00 +37°C° 0 mm 2 mps 752 mmHg 52%
    23:00 +37°C° 0 mm 2 mps 752 mmHg 53%

    Tomorrow, 21 September, Friday

    Time Temperature Precipitation Wind Pressure Humidity
    00:00 +36°C° 0 mm 2 mps 752 mmHg 55%
    01:00 +36°C° 0 mm 2 mps 752 mmHg 55%
    02:00 +36°C° 0 mm 2 mps 752 mmHg 56%
    03:00 +36°C° 0 mm 2 mps 751 mmHg 57%
    04:00 +35°C° 0 mm 2 mps 751 mmHg 59%
    05:00 +35°C° 0 mm 2 mps 752 mmHg 60%
    06:00 +35°C° 0 mm 2 mps 752 mmHg 62%
    07:00 +35°C° 0 mm 2 mps 753 mmHg 58%
    08:00 +36°C° 0 mm 2 mps 753 mmHg 55%
    09:00 +36°C° 0 mm 1 mps 754 mmHg 51%
    10:00 +38°C° 0 mm 2 mps 754 mmHg 46%
    11:00 +39°C° 0 mm 2 mps 753 mmHg 40%
    12:00 +40°C° 0 mm 2 mps 753 mmHg 35%
    13:00 +42°C° 0.1 mm 3 mps 752 mmHg 33%
    14:00 +42°C° 0.1 mm 3 mps 752 mmHg 32%
    15:00 +43°C° 0.1 mm 4 mps 751 mmHg 31%
    16:00 +42°C° 0.1 mm 3 mps 751 mmHg 32%
    17:00 +42°C° 0.1 mm 3 mps 751 mmHg 33%
    18:00 +40°C° 0.1 mm 2 mps 751 mmHg 35%
    19:00 +40°C° 0 mm 2 mps 751 mmHg 37%
    20:00 +39°C° 0 mm 2 mps 752 mmHg 39%
    21:00 +39°C° 0 mm 2 mps 752 mmHg 41%
    22:00 +38°C° 0 mm 2 mps 752 mmHg 44%
    23:00 +36°C° 0 mm 1 mps 752 mmHg 47%

    Day after tomorrow, 22 September, Saturday

    Time Temperature Precipitation Wind Pressure Humidity
    00:00 +36°C° 0 mm 1 mps 752 mmHg 50%
    01:00 +35°C° 0 mm 1 mps 752 mmHg 52%
    02:00 +35°C° 0 mm 1 mps 752 mmHg 54%
    03:00 +34°C° 0 mm 1 mps 752 mmHg 56%
    04:00 +34°C° 0 mm 1 mps 752 mmHg 58%
    05:00 +34°C° 0 mm 1 mps 752 mmHg 60%
    06:00 +34°C° 0 mm 2 mps 753 mmHg 62%
    07:00 +35°C° 0 mm 2 mps 753 mmHg 57%
    08:00 +36°C° 0 mm 2 mps 754 mmHg 53%
    09:00 +37°C° 0 mm 2 mps 754 mmHg 48%
    10:00 +38°C° 0 mm 2 mps 754 mmHg 41%
    11:00 +39°C° 0 mm 2 mps 754 mmHg 35%
    12:00 +41°C° 0 mm 2 mps 753 mmHg 29%
    13:00 +42°C° 0 mm 3 mps 752 mmHg 27%
    14:00 +42°C° 0 mm 3 mps 752 mmHg 26%
    15:00 +43°C° 0 mm 4 mps 751 mmHg 25%
    16:00 +42°C° 0 mm 4 mps 751 mmHg 28%
    17:00 +41°C° 0 mm 4 mps 751 mmHg 32%
    18:00 +40°C° 0 mm 4 mps 751 mmHg 35%
    19:00 +38°C° 0 mm 3 mps 752 mmHg 40%
    20:00 +37°C° 0 mm 3 mps 752 mmHg 46%
    21:00 +37°C° 0 mm 3 mps 753 mmHg 52%
    22:00 +36°C° 0 mm 3 mps 753 mmHg 54%
    23:00 +36°C° 0 mm 3 mps 753 mmHg 56%

    23 September, Sunday

    Time Temperature Precipitation Wind Pressure Humidity
    00:00 +35°C° 0 mm 3 mps 753 mmHg 58%
    01:00 +35°C° 0 mm 2 mps 753 mmHg 60%
    02:00 +34°C° 0 mm 2 mps 753 mmHg 62%
    03:00 +34°C° 0 mm 2 mps 753 mmHg 63%
    04:00 +34°C° 0 mm 2 mps 753 mmHg 65%
    05:00 +34°C° 0 mm 2 mps 753 mmHg 66%
    06:00 +32°C° 0 mm 2 mps 754 mmHg 67%
    07:00 +35°C° 0 mm 2 mps 754 mmHg 60%
    08:00 +36°C° 0 mm 2 mps 755 mmHg 53%
    09:00 +37°C° 0 mm 2 mps 755 mmHg 46%
    10:00 +38°C° 0 mm 2 mps 755 mmHg 42%
    11:00 +39°C° 0 mm 2 mps 754 mmHg 38%
    12:00 +40°C° 0 mm 3 mps 754 mmHg 33%
    13:00 +42°C° 0 mm 3 mps 753 mmHg 32%
    14:00 +42°C° 0 mm 3 mps 752 mmHg 32%
    15:00 +42°C° 0 mm 4 mps 751 mmHg 31%
    16:00 +42°C° 0 mm 4 mps 751 mmHg 34%
    17:00 +40°C° 0 mm 3 mps 751 mmHg 36%
    18:00 +39°C° 0 mm 3 mps 752 mmHg 39%
    19:00 +38°C° 0 mm 3 mps 752 mmHg 43%
    20:00 +37°C° 0 mm 3 mps 753 mmHg 47%
    21:00 +37°C° 0 mm 2 mps 753 mmHg 51%
    22:00 +36°C° 0 mm 2 mps 753 mmHg 50%
    23:00 +36°C° 0 mm 2 mps 753 mmHg 50%

    24 September, Monday

    Time Temperature Precipitation Wind Pressure Humidity
    00:00 +36°C° 0 mm 2 mps 752 mmHg 49%
    01:00 +35°C° 0 mm 1 mps 752 mmHg 49%
    02:00 +35°C° 0 mm 1 mps 752 mmHg 48%
    03:00 +32°C° 0 mm 0 mps 752 mmHg 48%
    04:00 +32°C° 0 mm 0 mps 752 mmHg 48%
    05:00 +32°C° 0 mm 0 mps 752 mmHg 48%
    06:00 +32°C° 0 mm 0 mps 753 mmHg 48%
    07:00 +35°C° 0 mm 1 mps 753 mmHg 43%
    08:00 +36°C° 0 mm 1 mps 753 mmHg 39%
    09:00 +38°C° 0 mm 2 mps 754 mmHg 35%
    10:00 +39°C° 0 mm 2 mps 753 mmHg 33%
    11:00 +40°C° 0 mm 3 mps 753 mmHg 31%
    12:00 +42°C° 0 mm 3 mps 752 mmHg 28%
    13:00 +42°C° 0 mm 3 mps 751 mmHg 29%
    14:00 +42°C° 0 mm 3 mps 751 mmHg 29%
    15:00 +42°C° 0 mm 3 mps 750 mmHg 29%
    16:00 +42°C° 0 mm 3 mps 750 mmHg 32%
    17:00 +40°C° 0 mm 3 mps 750 mmHg 34%
    18:00 +39°C° 0 mm 3 mps 751 mmHg 36%
    19:00 +38°C° 0 mm 3 mps 751 mmHg 40%
    20:00 +38°C° 0 mm 3 mps 752 mmHg 43%
    21:00 +37°C° 0 mm 2 mps 752 mmHg 47%
    22:00 +37°C° 0 mm 2 mps 752 mmHg 48%
    23:00 +36°C° 0 mm 2 mps 752 mmHg 49%

    25 September, Tuesday

    Time Temperature Precipitation Wind Pressure Humidity
    00:00 +36°C° 0 mm 2 mps 752 mmHg 51%
    01:00 +36°C° 0 mm 3 mps 752 mmHg 54%
    02:00 +35°C° 0 mm 3 mps 752 mmHg 58%
    03:00 +34°C° 0 mm 3 mps 751 mmHg 61%
    04:00 +34°C° 0 mm 3 mps 752 mmHg 66%
    05:00 +34°C° 0 mm 3 mps 752 mmHg 70%
    06:00 +33°C° 0 mm 3 mps 753 mmHg 75%
    07:00 +34°C° 0 mm 3 mps 753 mmHg 71%
    08:00 +34°C° 0 mm 4 mps 754 mmHg 67%
    09:00 +35°C° 0 mm 4 mps 754 mmHg 64%
    10:00 +36°C° 0 mm 4 mps 754 mmHg 59%
    11:00 +37°C° 0 mm 4 mps 753 mmHg 54%
    12:00 +38°C° 0 mm 4 mps 753 mmHg 50%
    13:00 +39°C° 0 mm 3 mps 752 mmHg 48%
    14:00 +39°C° 0 mm 3 mps 751 mmHg 46%
    15:00 +40°C° 0 mm 3 mps 750 mmHg 45%
    16:00 +39°C° 0 mm 3 mps 751 mmHg 46%
    17:00 +39°C° 0 mm 3 mps 751 mmHg 48%
    18:00 +38°C° 0 mm 3 mps 751 mmHg 50%
    19:00 +37°C° 0.1 mm 3 mps 751 mmHg 55%
    20:00 +37°C° 0.1 mm 4 mps 752 mmHg 59%
    21:00 +36°C° 0.1 mm 4 mps 752 mmHg 64%
    22:00 +35°C° 0 mm 4 mps 752 mmHg 67%
    23:00 +34°C° 0 mm 4 mps 752 mmHg 70%
    Show more